Weather reports worldwide

Advertisment
Aeroport de Lannion, France (7118): temperature & dewpoint: 10.12.2018 01:00:00 - 16.12.2018 01:00:00 (CET)Aeroport de Lannion, France (7118): wind speed & gusts: 10.12.2018 01:00:00 - 16.12.2018 01:00:00 (CET)Aeroport de Lannion, France (7118): wind direction: 10.12.2018 01:00:00 - 16.12.2018 01:00:00 (CET)Aeroport de Lannion, France (7118): reduced air pressure: 10.12.2018 01:00:00 - 16.12.2018 01:00:00 (CET)Aeroport de Lannion, France (7118): visibility: 10.12.2018 01:00:00 - 16.12.2018 01:00:00 (CET)Aeroport de Lannion, France (7118): precipitation: 10.12.2018 01:00:00 - 16.12.2018 01:00:00 (CET)
Date & Time tt [°C] td [°C] ff [km/h] ff [kn] fx [km/h] fx [kn] dd ppp [hPa] vv [km] rr [mm]
16.12.2018 01:00:00 8,1 6,6 18 10 30 16 SW 1009,5 16 0,0
16.12.2018 00:00:00 8,6 6,6 18 10 32 17 SW 1009,4 18 0,0
15.12.2018 23:00:00 8,9 6,9 19 10 32 17 SW 1009,1 17 0,0
15.12.2018 22:00:00 8,8 6,8 19 10 36 20 SW 1008,9 16 0,0
15.12.2018 21:00:00 9,7 7,5 24 13 42 23 SW 1008,3 16 0,0
15.12.2018 20:00:00 9,8 7,4 26 14 47 25 WSW 1007,5 16 0,0
15.12.2018 19:00:00 10,5 7,4 29 16 59 32 WSW 1006,4 15 0,0
15.12.2018 18:00:00 11,4 8,8 39 21 62 33 WSW 1005,7 10 0,0
15.12.2018 17:00:00 13,3 11,5 32 18 66 36 WSW 1004,4 59 0,8
15.12.2018 16:00:00 14,2 12,9 26 14 42 23 SSW 1003,7 20 0,0
15.12.2018 15:00:00 13,7 13,1 22 12 37 20 S 1004,2 15 1,6
15.12.2018 14:00:00 11,8 11,2 19 10 37 20 SSE 1005,1 16 0,0
15.12.2018 13:00:00 10,5 9,9 17 9 43 23 S 1006,7 20 0,2
15.12.2018 12:00:00 8,6 8,0 20 11 37 20 SE 1007,9 5 0,2
15.12.2018 11:00:00 8,5 7,7 26 14 40 21 SSE 1008,7 47 0,0
15.12.2018 10:00:00 8,0 7,2 22 12 40 22 SSE 1009,7 59 0,4
15.12.2018 09:00:00 7,8 7,0 21 11 44 24 SSE 1010,5 16 0,6
15.12.2018 08:00:00 7,5 6,8 25 14 45 24 SSE 1010,6 34 2,0
15.12.2018 07:00:00 6,1 5,5 24 13 56 30 SSE 1011,3 7 0,6
15.12.2018 06:00:00 5,7 5,0 32 17 55 30 SE 1011,7 8 0,0
15.12.2018 05:00:00 5,1 4,5 28 15 48 26 SE 1012,6 7 0,6
15.12.2018 04:00:00 4,7 4,0 32 17 45 24 SE 1013,9 4,2 2,2
15.12.2018 03:00:00 4,9 4,0 27 15 45 24 SE 1015,0 4,6 0,8
15.12.2018 02:00:00 4,8 3,8 27 15 39 21 SE 1015,8 6 0,0
15.12.2018 01:00:00 4,2 3,0 23 12 32 17 SE 1016,9 5 0,0
15.12.2018 00:00:00 4,1 2,4 18 10 32 17 SE 1017,9 7 0,0
14.12.2018 23:00:00 4,0 2,2 20 11 29 16 SE 1018,7 8 0,0
14.12.2018 22:00:00 3,5 1,4 20 11 34 18 SE 1019,2 9 0,0
14.12.2018 21:00:00 3,3 0,7 23 12 33 18 SE 1019,9 11 0,0
14.12.2018 20:00:00 3,4 1,0 21 11 31 17 SSE 1020,3 11 0,0
14.12.2018 19:00:00 3,2 0,8 21 12 28 15 SE 1020,0 12 0,0
14.12.2018 18:00:00 2,9 0,8 19 11 26 14 SE 1020,2 11 0,0
14.12.2018 17:00:00 2,6 1,1 20 11 29 16 SE 1020,2 8 0,2
14.12.2018 16:00:00 2,7 0,4 21 11 31 17 SE 1020,3 11 0,0
14.12.2018 15:00:00 3,3 0,2 21 11 28 15 SE 1020,3 13 0,0
14.12.2018 14:00:00 3,4 -0,4 19 10 29 16 SE 1020,5 17 0,0
14.12.2018 13:00:00 3,3 -0,7 20 11 30 16 SE 1020,7 18 0,0
14.12.2018 12:00:00 2,7 0,4 14 8 21 11 ESE 1020,9 11 0,0
14.12.2018 11:00:00 1,5 -0,3 13 7 19 11 ESE 1021,1 10 0,0
14.12.2018 10:00:00 0,4 -1,0 13 7 20 11 ESE 1020,6 8 0,0
14.12.2018 09:00:00 0,4 -1,2 9 5 18 10 E 1019,7 9 0,0
14.12.2018 08:00:00 0,2 -1,4 8 4 16 8 E 1019,2 9 0,0
14.12.2018 07:00:00 0,6 -1,5 12 6 21 11 ESE 1019,0 11 0,0
14.12.2018 06:00:00 1,3 -0,9 11 6 25 13 E 1018,3 13 0,0
14.12.2018 05:00:00 1,6 -0,8 10 6 19 11 E 1018,3 13 0,0
14.12.2018 04:00:00 1,6 -0,7 13 7 26 14 ESE 1017,8 14 0,0
14.12.2018 03:00:00 1,5 -0,7 14 8 28 15 ESE 1017,2 14 0,0
14.12.2018 02:00:00 2,2 -0,4 14 8 30 16 ESE 1016,8 14 0,0
14.12.2018 01:00:00 2,6 -0,3 21 12 32 18 ESE 1016,6 16 0,0
14.12.2018 00:00:00 2,7 -0,4 21 11 30 16 ESE 1016,2 17 0,0
13.12.2018 23:00:00 2,9 -0,7 14 7 23 13 E 1015,8 18 0,0
13.12.2018 22:00:00 2,9 -0,6 12 6 29 16 E 1015,1 16 0,0
13.12.2018 21:00:00 3,0 -0,6 14 7 26 14 E 1014,1 16 0,0
13.12.2018 20:00:00 3,2 -0,6 17 9 28 15 ESE 1013,4 18 0,0
13.12.2018 19:00:00 3,3 0,3 14 8 24 13 ESE 1012,8 16 0,0
13.12.2018 18:00:00 3,4 0,3 13 7 24 13 E 1011,8 16 0,0
13.12.2018 17:00:00 3,3 0,3 14 8 32 17 E 1010,9 17 0,0
13.12.2018 16:00:00 3,1 0,3 21 11 35 19 ESE 1010,0 16 0,0
13.12.2018 15:00:00 3,2 0,8 22 12 35 19 ESE 1009,2 17 0,0
13.12.2018 14:00:00 2,9 1,3 25 14 40 22 ESE 1008,8 13 0,2
13.12.2018 13:00:00 2,4 1,4 27 14 41 22 E 1008,6 9 0,2
13.12.2018 12:00:00 2,7 2,0 26 14 41 22 ESE 1008,5 7 0,6
13.12.2018 11:00:00 2,4 1,7 26 14 37 20 ESE 1008,3 6 0,8
13.12.2018 10:00:00 2,3 1,4 22 12 36 19 ESE 1007,9 8 0,8
13.12.2018 09:00:00 2,6 1,6 21 11 34 18 ESE 1007,8 6 0,8
13.12.2018 08:00:00 2,8 1,6 22 12 34 18 ESE 1007,3 8 0,4
13.12.2018 07:00:00 2,9 1,3 23 12 35 19 ESE 1006,9 18 0,0
13.12.2018 06:00:00 3,1 1,5 25 14 35 19 ESE 1007,0 18 0,0
13.12.2018 05:00:00 3,1 1,3 25 14 40 22 ESE 1007,5 20 0,0
13.12.2018 04:00:00 3,6 1,8 23 12 38 20 SE 1008,2 19 0,0
13.12.2018 03:00:00 3,5 1,9 24 13 43 23 SE 1008,4 20 0,0
13.12.2018 02:00:00 3,6 2,0 25 14 43 23 ESE 1008,6 19 0,0
13.12.2018 01:00:00 3,8 2,3 27 15 39 21 ESE 1009,9 15 0,0
13.12.2018 00:00:00 4,0 2,5 21 12 37 20 SE 1011,0 13 0,0
12.12.2018 23:00:00 4,3 2,8 24 13 37 20 SE 1011,6 13 0,0
12.12.2018 22:00:00 4,4 3,2 21 12 31 17 SE 1013,1 11 0,0
12.12.2018 21:00:00 4,5 3,8 19 11 29 16 SE 1014,1 8 0,0
12.12.2018 20:00:00 4,4 3,7 14 8 22 12 SE 1014,3 9 0,0
12.12.2018 19:00:00 4,9 4,2 12 7 21 11 SE 1014,5 12 0,0
12.12.2018 18:00:00 6,1 5,4 14 8 29 16 SE 1015,3 37 0,0
12.12.2018 17:00:00 6,2 5,6 19 10 27 15 ESE 1015,8 14 0,0
12.12.2018 16:00:00 6,9 6,3 17 9 24 13 ESE 1015,9 10 0,0
12.12.2018 15:00:00 7,2 6,6 12 7 20 11 SE 1017,0 4,9 0,4
12.12.2018 14:00:00 7,6 6,8 11 6 18 10 S 1017,5 11 0,0
12.12.2018 13:00:00 8,0 7,4 11 6 19 10 SSE 1017,7 9 0,0
12.12.2018 12:00:00 7,1 6,7 13 7 17 9 SE 1018,6 6 0,0
12.12.2018 11:00:00 6,0 5,6 13 7 18 10 SE 1019,2 2,5 0,0
12.12.2018 10:00:00 5,4 5,0 13 7 19 10 SE 1019,3 7 0,0
12.12.2018 09:00:00 5,0 4,4 13 7 17 9 SE 1019,1 6 0,0
12.12.2018 08:00:00 5,2 4,5 10 6 21 12 SSE 1018,7 10 0,0
12.12.2018 07:00:00 6,4 5,7 11 6 18 10 SSE 1018,8 9 0,0
12.12.2018 06:00:00 6,6 5,9 10 5 19 10 S 1018,9 12 0,2
12.12.2018 05:00:00 6,6 5,7 13 7 28 15 SSE 1018,9 19 0,0
12.12.2018 04:00:00 6,9 6,3 18 10 28 15 SE 1018,4 12 0,0
12.12.2018 03:00:00 6,9 6,3 19 10 26 14 SE 1018,3 8 0,4
12.12.2018 02:00:00 7,1 6,4 17 9 28 15 SE 1018,9 7 3,3
12.12.2018 01:00:00 7,8 6,7 9 5 24 13 S 1019,6 4,5 1,8
12.12.2018 00:00:00 8,3 6,6 17 9 25 14 SE 1018,9 19 0,0
11.12.2018 23:00:00 7,9 6,2 20 11 27 15 SE 1019,1 19 0,0
11.12.2018 22:00:00 7,8 5,9 12 6 17 9 SE 1019,6 20 0,0
11.12.2018 21:00:00 8,1 6,1 9 5 18 10 SSE 1019,8 19 0,0
11.12.2018 20:00:00 7,7 6,0 16 9 29 16 SE 1019,8 19 0,0
11.12.2018 19:00:00 7,1 5,7 14 7 22 12 SE 1019,9 18 0,0
11.12.2018 18:00:00 7,5 5,3 10 5 25 13 SSE 1020,6 19 0,0
11.12.2018 17:00:00 8,6 5,7 16 9 29 16 SSE 1020,8 20 0,0
11.12.2018 16:00:00 8,9 5,8 19 11 32 18 SSE 1021,1 20 0,0
11.12.2018 15:00:00 9,3 5,5 22 12 36 19 SSE 1021,7 60 0,0
11.12.2018 14:00:00 9,6 5,9 17 9 29 15 SSE 1022,3 27 0,0
11.12.2018 13:00:00 8,9 6,0 16 9 34 18 SSE 1023,0 20 0,0
11.12.2018 12:00:00 7,9 7,1 13 7 20 11 SE 1023,6 18 0,0
11.12.2018 11:00:00 5,9 5,6 11 6 17 9 SE 1024,5 17 0,0
11.12.2018 10:00:00 4,0 3,7 11 6 15 8 SE 1024,9 14 0,0
11.12.2018 09:00:00 3,0 2,7 8 5 17 9 SE 1025,1 11 0,0
11.12.2018 08:00:00 3,9 3,6 9 5 12 7 SE 1025,2 0,7 0,0
11.12.2018 07:00:00 3,4 3,0 9 5 13 7 SE 1025,3 8 0,0
11.12.2018 06:00:00 3,4 3,0 8 5 11 6 SE 1025,6 10 0,0
11.12.2018 05:00:00 3,6 3,2 9 5 10 6 SE 1026,1 12 0,2
11.12.2018 04:00:00 4,1 3,7 6 4 14 8 SSE 1026,7 10 0,0
11.12.2018 03:00:00 4,3 3,9 9 5 12 7 SSE 1027,6 10 0,0
11.12.2018 02:00:00 4,6 4,2 9 5 13 7 SSE 1028,1 8 0,0
11.12.2018 01:00:00 5,3 4,9 7 4 10 5 SSE 1028,9 11 0,0
11.12.2018 00:00:00 5,0 4,6 6 4 10 5 SE 1029,3 9 0,0
10.12.2018 23:00:00 4,5 4,1 9 5 11 6 SSE 1029,5 7 0,0
10.12.2018 22:00:00 5,0 4,4 6 3 8 4 SE 1029,7 2,0 0,0
10.12.2018 21:00:00 5,6 5,0 4 2 8 4 SSE 1030,1 5 0,0
10.12.2018 20:00:00 6,0 5,3 5 3 8 4 SE 1030,1 4,2 0,0
10.12.2018 19:00:00 5,9 4,5 4 2 8 4 S 1030,3 10 0,0
10.12.2018 18:00:00 7,9 6,2 6 4 10 5 WSW 1030,4 19 0,0
10.12.2018 17:00:00 9,3 6,9 9 5 13 7 W 1030,7 19 0,0
10.12.2018 16:00:00 10,4 7,1 9 5 22 12 W 1030,9 45 0,0
10.12.2018 15:00:00 11,6 7,1 14 8 21 11 WNW 1030,9 20 0,0
10.12.2018 14:00:00 11,0 6,3 13 7 22 12 WNW 1031,1 49 0,0
10.12.2018 13:00:00 10,6 6,2 13 7 23 12 WNW 1031,3 51 0,0
10.12.2018 12:00:00 10,6 6,7 13 7 21 11 WNW 1032,1 20 0,0
10.12.2018 11:00:00 10,0 6,5 13 7 18 10 WNW 1031,8 20 0,0
10.12.2018 10:00:00 9,5 6,4 12 7 23 13 WNW 1031,5 20 0,0
10.12.2018 09:00:00 9,4 6,7 10 5 24 13 WNW 1031,2 19 0,0
10.12.2018 08:00:00 9,3 5,8 17 9 29 16 WNW 1031,1 19 0,0
10.12.2018 07:00:00 9,4 6,8 18 10 26 14 W 1031,0 13 0,0
10.12.2018 06:00:00 8,3 5,4 14 7 24 13 W 1030,8 17 0,0
10.12.2018 05:00:00 9,0 5,7 17 9 31 17 W 1030,6 19 0,0
10.12.2018 04:00:00 9,5 6,2 19 11 31 17 W 1030,6 17 0,0
10.12.2018 03:00:00 8,8 5,9 19 10 29 16 WNW 1030,3 17 0,0
10.12.2018 02:00:00 9,1 6,0 18 10 30 16 WNW 1030,2 16 0,0
10.12.2018 01:00:00 9,3 6,2 19 10 36 19 WNW 1030,0 18 0,0

tt = temperature
td = dewpoint
ff = wind speed
fx = gusts
dd = wind direction
ppp = reduced air pressure
vv = visibility
rr = precipitation

Next stations